| time (UTC) | temp C | wind direction | speed KPH | gust KPH | rain 1hr cm | rain 24hr cm | rain mn cm | humidity % | barometer mb |
| 20260905133942 | 20 | 4 | 4.8 | 6.4 | 0.00 | 0.00 | 0.00 | 85 | 1012.0 |
| 20260905133438 | 20 | 358 | 3.2 | 8.0 | 0.00 | 0.00 | 0.00 | 86 | 1012.3 |
| 20260905132937 | 20 | 70 | 1.6 | 6.4 | 0.00 | 0.00 | 0.00 | 88 | 1012.0 |
| 20260905132432 | 18 | 4 | 1.6 | 6.4 | 0.00 | 0.00 | 0.00 | 92 | 1012.1 |
| 20260905131928 | 18 | 97 | 3.2 | 4.8 | 0.00 | 0.00 | 0.00 | 95 | 1012.1 |
| 20260905131424 | 17 | 33 | 3.2 | 3.2 | 0.00 | 0.00 | 0.00 | 99 | 1011.9 |
| 20260905130924 | 16 | 206 | 0.0 | 1.6 | 0.00 | 0.00 | 0.00 | 99 | 1012.3 |
| 20260905130423 | 16 | 97 | 3.2 | 4.8 | 0.00 | 0.00 | 0.00 | 99 | 1012.0 |
| 20260905125923 | 15 | 101 | 1.6 | 6.4 | 0.00 | 0.00 | 0.00 | 99 | 1012.4 |
| 20260905125418 | 15 | 89 | 1.6 | 3.2 | 0.00 | 0.00 | 0.00 | 99 | 1012.1 |
| 20260905124913 | 14 | 29 | 3.2 | 3.2 | 0.00 | 0.00 | 0.00 | 99 | 1012.5 |
| 20260905124410 | 14 | 85 | 1.6 | 3.2 | 0.00 | 0.00 | 0.00 | 99 | 1012.8 |
| 20260905123910 | 14 | 89 | 0.0 | 3.2 | 0.00 | 0.00 | 0.00 | 99 | 1012.6 |
| 20260905123407 | 13 | 98 | 3.2 | 4.8 | 0.00 | 0.00 | 0.00 | 99 | 1012.8 |
| 20260905122902 | 13 | 147 | 1.6 | 4.8 | 0.00 | 0.00 | 0.00 | 99 | 1013.0 |
| 20260905122401 | 13 | 27 | 3.2 | 4.8 | 0.00 | 0.00 | 0.00 | 99 | 1012.9 |
| 20260905121856 | 13 | 69 | 3.2 | 3.2 | 0.00 | 0.00 | 0.00 | 99 | 1012.8 |
| 20260905121353 | 13 | 39 | 1.6 | 3.2 | 0.00 | 0.00 | 0.00 | 99 | 1012.8 |
| 20260905120851 | 13 | 99 | 1.6 | 3.2 | 0.00 | 0.00 | 0.00 | 99 | 1012.8 |
| 20260905120346 | 13 | 85 | 4.8 | 4.8 | 0.00 | 0.00 | 0.00 | 99 | 1012.6 |
| 20260905115841 | 13 | 87 | 1.6 | 3.2 | 0.00 | 0.00 | 0.00 | 99 | 1012.5 |
| 20260905115340 | 13 | 81 | 3.2 | 4.8 | 0.00 | 0.00 | 0.00 | 99 | 1012.4 |
| 20260905114835 | 13 | 29 | 0.0 | 1.6 | 0.00 | 0.00 | 0.00 | 99 | 1012.2 |
| 20260905114334 | 13 | 66 | 3.2 | 3.2 | 0.00 | 0.00 | 0.00 | 99 | 1012.3 |
| 20260905113833 | 12 | 107 | 1.6 | 3.2 | 0.00 | 0.00 | 0.00 | 99 | 1012.1 |
| 20260905113329 | 12 | 55 | 0.0 | 1.6 | 0.00 | 0.00 | 0.00 | 99 | 1012.2 |
| 20260905112825 | 12 | 49 | 3.2 | 3.2 | 0.00 | 0.00 | 0.00 | 99 | 1012.0 |
| 20260905112319 | 12 | 27 | 3.2 | 3.2 | 0.00 | 0.00 | 0.00 | 99 | 1012.1 |
| 20260905111815 | 12 | 51 | 1.6 | 3.2 | 0.00 | 0.00 | 0.00 | 99 | 1012.2 |
| 20260905111315 | 12 | 82 | 3.2 | 3.2 | 0.00 | 0.00 | 0.00 | 99 | 1012.1 |
| 20260905110814 | 12 | 356 | 1.6 | 3.2 | 0.00 | 0.00 | 0.00 | 99 | 1012.0 |
| 20260905110308 | 12 | 22 | 3.2 | 3.2 | 0.00 | 0.00 | 0.00 | 99 | 1011.8 |
| 20260905105804 | 12 | 41 | 1.6 | 3.2 | 0.00 | 0.00 | 0.00 | 99 | 1012.0 |
| 20260905105306 | 12 | 68 | 3.2 | 4.8 | 0.00 | 0.00 | 0.00 | 99 | 1011.9 |
| 20260905104757 | 12 | 37 | 3.2 | 3.2 | 0.00 | 0.00 | 0.00 | 99 | 1012.0 |
| 20260905104254 | 12 | 39 | 3.2 | 3.2 | 0.00 | 0.00 | 0.00 | 99 | 1011.7 |
| 20260905103753 | 12 | 70 | 3.2 | 3.2 | 0.00 | 0.00 | 0.00 | 99 | 1011.7 |
| 20260905103249 | 12 | 56 | 3.2 | 4.8 | 0.00 | 0.00 | 0.00 | 99 | 1011.6 |
| 20260905102744 | 12 | 47 | 3.2 | 3.2 | 0.00 | 0.00 | 0.00 | 99 | 1011.8 |
| 20260905102241 | 12 | 53 | 3.2 | 3.2 | 0.00 | 0.00 | 0.00 | 99 | 1011.3 |
| 20260905101740 | 12 | 63 | 0.0 | 3.2 | 0.00 | 0.00 | 0.00 | 99 | 1011.6 |
| 20260905101238 | 12 | 77 | 0.0 | 1.6 | 0.00 | 0.00 | 0.00 | 99 | 1011.4 |
| 20260905100734 | 12 | 76 | 0.0 | 3.2 | 0.00 | 0.00 | 0.00 | 99 | 1011.5 |
| 20260905100230 | 12 | 30 | 3.2 | 3.2 | 0.00 | 0.00 | 0.00 | 99 | 1011.4 |
| 20260905095729 | 12 | 52 | 1.6 | 3.2 | 0.00 | 0.00 | 0.00 | 99 | 1011.4 |
| 20260905095229 | 12 | 89 | 1.6 | 3.2 | 0.00 | 0.00 | 0.00 | 99 | 1011.2 |
| 20260905094724 | 12 | 48 | 3.2 | 4.8 | 0.00 | 0.00 | 0.00 | 99 | 1011.3 |
| 20260905094219 | 12 | 53 | 1.6 | 3.2 | 0.00 | 0.00 | 0.00 | 99 | 1011.2 |
| 20260905093713 | 13 | 47 | 3.2 | 3.2 | 0.00 | 0.00 | 0.00 | 99 | 1010.9 |
| 20260905093209 | 13 | 62 | 3.2 | 3.2 | 0.00 | 0.00 | 0.00 | 99 | 1011.2 |
| 20260905092704 | 13 | 67 | 3.2 | 3.2 | 0.00 | 0.00 | 0.00 | 99 | 1011.2 |
| 20260905092200 | 13 | 50 | 3.2 | 3.2 | 0.00 | 0.00 | 0.00 | 99 | 1011.2 |
| 20260905091659 | 13 | 24 | 0.0 | 3.2 | 0.00 | 0.00 | 0.00 | 99 | 1011.3 |
| 20260905091153 | 13 | 50 | 0.0 | 3.2 | 0.00 | 0.00 | 0.00 | 99 | 1011.2 |
| 20260905090648 | 13 | 55 | 3.2 | 3.2 | 0.00 | 0.00 | 0.00 | 99 | 1011.2 |
| 20260905090144 | 13 | 76 | 3.2 | 3.2 | 0.00 | 0.00 | 0.00 | 99 | 1011.2 |
| 20260905085642 | 13 | 40 | 3.2 | 3.2 | 0.00 | 0.00 | 0.00 | 99 | 1011.5 |
| 20260905085137 | 13 | 41 | 1.6 | 3.2 | 0.00 | 0.00 | 0.00 | 99 | 1011.2 |
| 20260905084636 | 13 | 32 | 0.0 | 3.2 | 0.00 | 0.00 | 0.00 | 99 | 1011.2 |
| 20260905084131 | 13 | 76 | 0.0 | 3.2 | 0.00 | 0.00 | 0.00 | 99 | 1011.3 |
| 20260905083626 | 13 | 37 | 3.2 | 3.2 | 0.00 | 0.00 | 0.00 | 99 | 1011.5 |
| 20260905083123 | 13 | 86 | 1.6 | 3.2 | 0.00 | 0.00 | 0.00 | 99 | 1011.5 |
| 20260905082618 | 13 | 72 | 0.0 | 1.6 | 0.00 | 0.00 | 0.00 | 99 | 1011.5 |
| 20260905082114 | 13 | 49 | 0.0 | 1.6 | 0.00 | 0.00 | 0.00 | 99 | 1011.4 |
| 20260905081613 | 13 | 45 | 0.0 | 3.2 | 0.00 | 0.00 | 0.00 | 99 | 1011.7 |
| 20260905081108 | 13 | 34 | 0.0 | 3.2 | 0.00 | 0.00 | 0.00 | 99 | 1011.4 |
| 20260905080603 | 13 | 46 | 3.2 | 3.2 | 0.00 | 0.00 | 0.00 | 99 | 1011.4 |
| 20260905080057 | 13 | 30 | 3.2 | 3.2 | 0.00 | 0.00 | 0.00 | 99 | 1011.4 |
| 20260905075550 | 13 | 41 | 1.6 | 3.2 | 0.00 | 0.00 | 0.00 | 99 | 1011.6 |
| 20260905075045 | 13 | 75 | 1.6 | 3.2 | 0.00 | 0.00 | 0.00 | 99 | 1011.7 |
| 20260905074544 | 13 | 71 | 0.0 | 1.6 | 0.00 | 0.00 | 0.00 | 99 | 1011.6 |
| 20260905074040 | 13 | 22 | 0.0 | 1.6 | 0.00 | 0.00 | 0.00 | 99 | 1011.6 |
| 20260905073535 | 13 | 31 | 1.6 | 3.2 | 0.00 | 0.00 | 0.00 | 99 | 1011.6 |
| 20260905073031 | 13 | 39 | 0.0 | 3.2 | 0.00 | 0.00 | 0.00 | 99 | 1011.6 |
| 20260905072530 | 14 | 89 | 1.6 | 3.2 | 0.00 | 0.00 | 0.00 | 99 | 1011.4 |
| 20260905072026 | 14 | 40 | 0.0 | 1.6 | 0.00 | 0.00 | 0.00 | 99 | 1011.7 |
| 20260905071523 | 14 | 23 | 1.6 | 3.2 | 0.00 | 0.00 | 0.00 | 99 | 1011.7 |
| 20260905071023 | 14 | 34 | 1.6 | 3.2 | 0.00 | 0.00 | 0.00 | 99 | 1011.7 |
| 20260905070518 | 14 | 86 | 0.0 | 3.2 | 0.00 | 0.00 | 0.00 | 99 | 1011.7 |
| 20260905070014 | 14 | 27 | 1.6 | 3.2 | 0.00 | 0.00 | 0.00 | 99 | 1011.9 |
| 20260905065511 | 14 | 45 | 3.2 | 3.2 | 0.00 | 0.00 | 0.00 | 99 | 1011.8 |
| 20260905065007 | 14 | 65 | 1.6 | 4.8 | 0.00 | 0.00 | 0.00 | 99 | 1011.9 |
| 20260905064502 | 14 | 25 | 1.6 | 1.6 | 0.00 | 0.00 | 0.00 | 99 | 1011.8 |
| 20260905063956 | 14 | 68 | 1.6 | 4.8 | 0.00 | 0.00 | 0.00 | 99 | 1011.9 |
| 20260905063450 | 14 | 51 | 0.0 | 1.6 | 0.00 | 0.00 | 0.00 | 99 | 1011.8 |
| 20260905062947 | 14 | 63 | 0.0 | 3.2 | 0.00 | 0.00 | 0.00 | 99 | 1012.0 |
| 20260905062441 | 14 | 28 | 3.2 | 3.2 | 0.00 | 0.00 | 0.00 | 99 | 1012.1 |
| 20260905061937 | 14 | 45 | 3.2 | 3.2 | 0.00 | 0.00 | 0.00 | 99 | 1012.0 |
| 20260905061436 | 14 | 49 | 0.0 | 3.2 | 0.00 | 0.00 | 0.00 | 99 | 1012.1 |
| 20260905060935 | 14 | 44 | 1.6 | 3.2 | 0.00 | 0.00 | 0.00 | 99 | 1012.1 |
| 20260905060432 | 14 | 50 | 0.0 | 1.6 | 0.00 | 0.00 | 0.00 | 99 | 1012.1 |
| 20260905055931 | 14 | 50 | 0.0 | 1.6 | 0.00 | 0.00 | 0.00 | 99 | 1012.1 |
| 20260905055426 | 14 | 44 | 0.0 | 1.6 | 0.00 | 0.00 | 0.00 | 99 | 1012.2 |
| 20260905054925 | 14 | 57 | 1.6 | 3.2 | 0.00 | 0.00 | 0.00 | 99 | 1012.2 |
| 20260905054422 | 14 | 104 | 3.2 | 3.2 | 0.00 | 0.00 | 0.00 | 99 | 1012.2 |
| 20260905053921 | 14 | 52 | 3.2 | 3.2 | 0.00 | 0.00 | 0.00 | 99 | 1012.1 |
| 20260905053416 | 14 | 44 | 0.0 | 1.6 | 0.00 | 0.00 | 0.00 | 99 | 1012.4 |
| 20260905052912 | 14 | 35 | 0.0 | 3.2 | 0.00 | 0.00 | 0.00 | 99 | 1012.4 |
| 20260905052411 | 15 | 87 | 0.0 | 3.2 | 0.00 | 0.00 | 0.00 | 99 | 1012.3 |
| 20260905051911 | 15 | 44 | 0.0 | 3.2 | 0.00 | 0.00 | 0.00 | 99 | 1012.5 |
| 20260905051407 | 15 | 43 | 0.0 | 3.2 | 0.00 | 0.00 | 0.00 | 99 | 1012.5 |
| 20260905050904 | 15 | 39 | 0.0 | 1.6 | 0.00 | 0.00 | 0.00 | 99 | 1012.5 |
| 20260905050400 | 15 | 50 | 1.6 | 3.2 | 0.00 | 0.00 | 0.00 | 99 | 1012.5 |
| 20260905045855 | 15 | 74 | 3.2 | 3.2 | 0.00 | 0.00 | 0.00 | 99 | 1012.6 |
| 20260905045350 | 15 | 35 | 1.6 | 1.6 | 0.00 | 0.00 | 0.00 | 99 | 1012.4 |
| 20260905044845 | 15 | 13 | 0.0 | 1.6 | 0.00 | 0.00 | 0.00 | 99 | 1012.6 |
| 20260905044340 | 15 | 314 | 0.0 | 1.6 | 0.00 | 0.00 | 0.00 | 99 | 1012.6 |
| 20260905043839 | 15 | 40 | 0.0 | 1.6 | 0.00 | 0.00 | 0.00 | 99 | 1012.7 |
| 20260905043333 | 15 | 323 | 0.0 | 1.6 | 0.00 | 0.00 | 0.00 | 99 | 1012.7 |
| 20260905042828 | 15 | 293 | 0.0 | 1.6 | 0.00 | 0.00 | 0.00 | 99 | 1012.8 |
| 20260905042323 | 15 | 32 | 0.0 | 0.0 | 0.00 | 0.00 | 0.00 | 99 | 1012.6 |
| 20260905041818 | 16 | 60 | 0.0 | 0.0 | 0.00 | 0.00 | 0.00 | 99 | 1012.7 |
| 20260905041314 | 16 | 40 | 1.6 | 1.6 | 0.00 | 0.00 | 0.00 | 99 | 1012.6 |
| 20260905040808 | 16 | 326 | 0.0 | 1.6 | 0.00 | 0.00 | 0.00 | 99 | 1012.6 |
| 20260905040307 | 16 | 352 | 0.0 | 1.6 | 0.00 | 0.00 | 0.00 | 99 | 1012.6 |
| 20260905035802 | 16 | 326 | 0.0 | 1.6 | 0.00 | 0.43 | 0.43 | 99 | 1012.6 |
| 20260905035258 | 16 | 37 | 0.0 | 0.0 | 0.00 | 0.43 | 0.43 | 99 | 1012.6 |
| 20260905034755 | 16 | 35 | 1.6 | 3.2 | 0.00 | 0.43 | 0.43 | 99 | 1012.5 |
| 20260905034255 | 16 | 1 | 1.6 | 1.6 | 0.00 | 0.43 | 0.43 | 99 | 1012.6 |
| 20260905033753 | 16 | 45 | 1.6 | 3.2 | 0.00 | 0.43 | 0.43 | 99 | 1012.6 |
| 20260905033249 | 16 | 31 | 0.0 | 1.6 | 0.00 | 0.43 | 0.43 | 99 | 1012.4 |
| 20260905032748 | 16 | 0 | 0.0 | 1.6 | 0.00 | 0.43 | 0.43 | 98 | 1012.6 |
| 20260905032244 | 17 | 75 | 3.2 | 3.2 | 0.00 | 0.43 | 0.43 | 98 | 1012.4 |
| 20260905031739 | 17 | 42 | 1.6 | 1.6 | 0.00 | 0.43 | 0.43 | 98 | 1012.5 |
| 20260905031235 | 17 | 32 | 0.0 | 1.6 | 0.00 | 0.43 | 0.43 | 98 | 1012.3 |
| 20260905030734 | 17 | 35 | 0.0 | 1.6 | 0.00 | 0.43 | 0.43 | 98 | 1012.3 |
| 20260905030230 | 17 | 38 | 0.0 | 1.6 | 0.00 | 0.43 | 0.43 | 98 | 1012.5 |
| 20260905025724 | 17 | 25 | 1.6 | 1.6 | 0.00 | 0.43 | 0.43 | 98 | 1012.4 |
| 20260905025220 | 17 | 35 | 1.6 | 3.2 | 0.00 | 0.43 | 0.43 | 97 | 1012.3 |
| 20260905024715 | 17 | 43 | 1.6 | 3.2 | 0.00 | 0.43 | 0.43 | 97 | 1012.4 |
| 20260905024211 | 17 | 54 | 3.2 | 3.2 | 0.00 | 0.43 | 0.43 | 97 | 1012.5 |
| 20260905023706 | 17 | 37 | 0.0 | 1.6 | 0.00 | 0.43 | 0.43 | 97 | 1012.5 |
| 20260905023206 | 17 | 0 | 0.0 | 1.6 | 0.00 | 0.43 | 0.43 | 97 | 1012.4 |
| 20260905022705 | 18 | 50 | 1.6 | 1.6 | 0.00 | 0.43 | 0.43 | 96 | 1012.4 |
| 20260905022201 | 18 | 336 | 0.0 | 0.0 | 0.00 | 0.43 | 0.43 | 95 | 1012.3 |
| 20260905021655 | 18 | 309 | 0.0 | 0.0 | 0.00 | 0.43 | 0.43 | 95 | 1012.3 |
| 20260905021150 | 18 | 309 | 0.0 | 0.0 | 0.00 | 0.43 | 0.43 | 96 | 1012.4 |
| 20260905020645 | 18 | 309 | 0.0 | 0.0 | 0.00 | 0.43 | 0.43 | 96 | 1012.3 |
| 20260905020141 | 18 | 309 | 0.0 | 0.0 | 0.00 | 0.43 | 0.43 | 96 | 1012.3 |
| 20260905015639 | 18 | 50 | 0.0 | 1.6 | 0.00 | 0.43 | 0.43 | 97 | 1012.7 |
| 20260905015133 | 18 | 37 | 0.0 | 0.0 | 0.00 | 0.43 | 0.43 | 97 | 1012.7 |
| 20260905014627 | 18 | 13 | 0.0 | 1.6 | 0.00 | 0.43 | 0.43 | 97 | 1012.6 |
| 20260905014122 | 18 | 33 | 1.6 | 3.2 | 0.00 | 0.43 | 0.43 | 97 | 1012.7 |
| 20260905013619 | 18 | 62 | 1.6 | 3.2 | 0.00 | 0.43 | 0.43 | 97 | 1012.9 |
| 20260905013114 | 18 | 50 | 0.0 | 1.6 | 0.00 | 0.43 | 0.43 | 97 | 1012.9 |
| 20260905012609 | 18 | 42 | 1.6 | 1.6 | 0.00 | 0.43 | 0.43 | 97 | 1012.7 |
| 20260905012105 | 18 | 0 | 0.0 | 1.6 | 0.00 | 0.43 | 0.43 | 96 | 1012.9 |
| 20260905011600 | 18 | 316 | 0.0 | 1.6 | 0.00 | 0.43 | 0.43 | 96 | 1012.8 |
| 20260905011057 | 18 | 0 | 0.0 | 1.6 | 0.00 | 0.43 | 0.43 | 96 | 1012.6 |
| 20260905010555 | 18 | 37 | 0.0 | 0.0 | 0.00 | 0.43 | 0.43 | 96 | 1012.6 |
| 20260905010052 | 18 | 333 | 0.0 | 1.6 | 0.00 | 0.43 | 0.43 | 96 | 1012.7 |
| 20260905005548 | 18 | 29 | 0.0 | 1.6 | 0.00 | 0.43 | 0.43 | 96 | 1012.5 |
| 20260905005043 | 18 | 25 | 1.6 | 1.6 | 0.00 | 0.43 | 0.43 | 97 | 1012.3 |
| 20260905004538 | 18 | 49 | 0.0 | 0.0 | 0.00 | 0.43 | 0.43 | 97 | 1012.4 |
| 20260905004034 | 18 | 50 | 0.0 | 1.6 | 0.00 | 0.43 | 0.43 | 96 | 1012.2 |
| 20260905003529 | 18 | 37 | 0.0 | 1.6 | 0.00 | 0.43 | 0.43 | 96 | 1012.3 |
| 20260905003025 | 19 | 8 | 3.2 | 3.2 | 0.00 | 0.43 | 0.43 | 97 | 1012.3 |
| 20260905002520 | 19 | 103 | 0.0 | 1.6 | 0.00 | 0.43 | 0.43 | 96 | 1012.3 |
| 20260905002019 | 19 | 79 | 3.2 | 3.2 | 0.00 | 0.43 | 0.43 | 96 | 1012.4 |
| 20260905001514 | 19 | 37 | 0.0 | 1.6 | 0.00 | 0.43 | 0.43 | 95 | 1012.2 |
| 20260905001008 | 19 | 326 | 0.0 | 3.2 | 0.00 | 0.43 | 0.43 | 96 | 1012.2 |
| 20260905000504 | 19 | 66 | 0.0 | 0.0 | 0.00 | 0.43 | 0.43 | 94 | 1012.1 |
| 20260905000000 | 19 | 71 | 0.0 | 1.6 | 0.00 | 0.43 | 0.43 | 94 | 1011.8 |
| 20260904235455 | 19 | 50 | 0.0 | 3.2 | 0.00 | 0.43 | 0.43 | 94 | 1011.9 |
| 20260904234949 | 19 | 55 | 0.0 | 0.0 | 0.00 | 0.43 | 0.43 | 94 | 1012.0 |
| 20260904234443 | 19 | 50 | 0.0 | 1.6 | 0.00 | 0.43 | 0.43 | 94 | 1011.9 |
| 20260904233940 | 19 | 40 | 0.0 | 1.6 | 0.00 | 0.43 | 0.43 | 94 | 1012.0 |
| 20260904233434 | 20 | 44 | 1.6 | 1.6 | 0.00 | 0.43 | 0.43 | 94 | 1012.1 |
| 20260904232931 | 20 | 299 | 0.0 | 3.2 | 0.00 | 0.43 | 0.43 | 93 | 1012.0 |
| 20260904232427 | 20 | 22 | 0.0 | 1.6 | 0.00 | 0.43 | 0.43 | 93 | 1011.8 |
| 20260904231924 | 20 | 35 | 0.0 | 1.6 | 0.00 | 0.43 | 0.43 | 92 | 1012.0 |
| 20260904231423 | 20 | 37 | 0.0 | 0.0 | 0.00 | 0.43 | 0.43 | 92 | 1012.1 |
| 20260904230918 | 20 | 37 | 0.0 | 0.0 | 0.00 | 0.43 | 0.43 | 91 | 1012.1 |
| 20260904230417 | 20 | 26 | 1.6 | 1.6 | 0.00 | 0.43 | 0.43 | 91 | 1011.9 |
| 20260904225912 | 20 | 30 | 0.0 | 1.6 | 0.00 | 0.43 | 0.43 | 91 | 1011.6 |
| 20260904225410 | 20 | 309 | 0.0 | 1.6 | 0.00 | 0.43 | 0.43 | 90 | 1011.4 |
| 20260904224905 | 20 | 328 | 1.6 | 3.2 | 0.00 | 0.43 | 0.43 | 91 | 1011.8 |
| 20260904224401 | 20 | 343 | 0.0 | 0.0 | 0.00 | 0.43 | 0.43 | 88 | 1011.6 |
| 20260904223900 | 21 | 319 | 1.6 | 3.2 | 0.00 | 0.43 | 0.43 | 89 | 1011.7 |
| 20260904223359 | 21 | 6 | 0.0 | 1.6 | 0.00 | 0.43 | 0.43 | 88 | 1012.0 |
| 20260904222857 | 21 | 353 | 1.6 | 1.6 | 0.00 | 0.43 | 0.43 | 87 | 1011.8 |
| 20260904222356 | 21 | 346 | 1.6 | 3.2 | 0.00 | 0.43 | 0.43 | 84 | 1011.7 |
| 20260904221856 | 22 | 30 | 1.6 | 3.2 | 0.00 | 0.43 | 0.43 | 84 | 1011.6 |
| 20260904221351 | 22 | 318 | 0.0 | 3.2 | 0.00 | 0.43 | 0.43 | 83 | 1011.7 |
| 20260904220846 | 22 | 347 | 3.2 | 3.2 | 0.00 | 0.43 | 0.43 | 78 | 1011.6 |
| 20260904220345 | 22 | 304 | 3.2 | 3.2 | 0.00 | 0.43 | 0.43 | 81 | 1011.5 |
| 20260904215841 | 22 | 326 | 0.0 | 3.2 | 0.00 | 0.43 | 0.43 | 75 | 1011.7 |
| 20260904215336 | 23 | 323 | 1.6 | 1.6 | 0.00 | 0.43 | 0.43 | 72 | 1011.6 |
| 20260904214832 | 24 | 0 | 1.6 | 3.2 | 0.00 | 0.43 | 0.43 | 67 | 1011.6 |
| 20260904214327 | 24 | 357 | 1.6 | 3.2 | 0.00 | 0.43 | 0.43 | 66 | 1011.5 |
| 20260904213825 | 24 | 27 | 1.6 | 4.8 | 0.00 | 0.43 | 0.43 | 68 | 1011.6 |
| 20260904213321 | 23 | 22 | 3.2 | 4.8 | 0.00 | 0.43 | 0.43 | 73 | 1011.6 |
| 20260904212817 | 23 | 355 | 3.2 | 4.8 | 0.00 | 0.43 | 0.43 | 71 | 1011.8 |
| 20260904212312 | 24 | 328 | 1.6 | 4.8 | 0.00 | 0.43 | 0.43 | 71 | 1011.5 |
| 20260904211807 | 24 | 356 | 1.6 | 3.2 | 0.00 | 0.43 | 0.43 | 65 | 1011.6 |
| 20260904211301 | 24 | 10 | 4.8 | 6.4 | 0.00 | 0.43 | 0.43 | 64 | 1011.5 |
| 20260904210756 | 24 | 44 | 0.0 | 4.8 | 0.00 | 0.43 | 0.43 | 65 | 1011.5 |
| 20260904210256 | 25 | 24 | 0.0 | 3.2 | 0.00 | 0.43 | 0.43 | 66 | 1011.7 |
| 20260904205752 | 25 | 6 | 4.8 | 4.8 | 0.00 | 0.43 | 0.43 | 64 | 1011.8 |
| 20260904205248 | 25 | 18 | 1.6 | 4.8 | 0.00 | 0.43 | 0.43 | 66 | 1011.6 |
| 20260904204744 | 25 | 86 | 0.0 | 4.8 | 0.00 | 0.43 | 0.43 | 66 | 1011.7 |
| 20260904204240 | 24 | 359 | 3.2 | 4.8 | 0.00 | 0.43 | 0.43 | 71 | 1011.7 |
| 20260904203736 | 23 | 331 | 3.2 | 3.2 | 0.00 | 0.43 | 0.43 | 71 | 1011.8 |
| 20260904203232 | 23 | 3 | 3.2 | 3.2 | 0.00 | 0.43 | 0.43 | 66 | 1012.0 |
| 20260904202728 | 23 | 6 | 4.8 | 6.4 | 0.00 | 0.43 | 0.43 | 66 | 1012.0 |
| 20260904202225 | 24 | 61 | 1.6 | 4.8 | 0.00 | 0.43 | 0.43 | 66 | 1011.8 |
| 20260904201720 | 24 | 354 | 6.4 | 6.4 | 0.00 | 0.43 | 0.43 | 65 | 1011.9 |
| 20260904201219 | 25 | 2 | 1.6 | 3.2 | 0.00 | 0.43 | 0.43 | 65 | 1012.0 |
| 20260904200714 | 26 | 4 | 1.6 | 1.6 | 0.00 | 0.43 | 0.43 | 62 | 1012.3 |
| 20260904200209 | 25 | 348 | 1.6 | 3.2 | 0.00 | 0.43 | 0.43 | 70 | 1012.4 |
| 20260904195708 | 23 | 6 | 3.2 | 6.4 | 0.00 | 0.43 | 0.43 | 70 | 1012.3 |
| 20260904195201 | 24 | 357 | 4.8 | 4.8 | 0.00 | 0.43 | 0.43 | 65 | 1012.3 |
| 20260904194701 | 25 | 86 | 3.2 | 4.8 | 0.00 | 0.43 | 0.43 | 63 | 1012.1 |
| 20260904194155 | 25 | 307 | 6.4 | 8.0 | 0.00 | 0.43 | 0.43 | 65 | 1012.5 |
| 20260904193651 | 25 | 345 | 4.8 | 4.8 | 0.00 | 0.43 | 0.43 | 64 | 1012.7 |
| 20260904193147 | 24 | 3 | 3.2 | 4.8 | 0.00 | 0.43 | 0.43 | 65 | 1012.5 |
| 20260904192647 | 23 | 299 | 1.6 | 4.8 | 0.00 | 0.43 | 0.43 | 70 | 1012.5 |
| 20260904192142 | 23 | 343 | 0.0 | 3.2 | 0.00 | 0.43 | 0.43 | 65 | 1012.4 |
| 20260904191639 | 24 | 4 | 4.8 | 8.0 | 0.00 | 0.43 | 0.43 | 63 | 1012.6 |
| 20260904191135 | 24 | 349 | 4.8 | 11.3 | 0.00 | 0.43 | 0.43 | 64 | 1012.6 |
| 20260904190630 | 24 | 356 | 4.8 | 6.4 | 0.00 | 0.43 | 0.43 | 68 | 1012.5 |
| 20260904190126 | 23 | 3 | 4.8 | 8.0 | 0.00 | 0.43 | 0.43 | 65 | 1012.7 |
| 20260904185624 | 25 | 356 | 4.8 | 4.8 | 0.00 | 0.43 | 0.43 | 62 | 1012.6 |
| 20260904185118 | 25 | 350 | 1.6 | 3.2 | 0.00 | 0.43 | 0.43 | 66 | 1012.7 |
| 20260904184616 | 25 | 321 | 6.4 | 6.4 | 0.00 | 0.43 | 0.43 | 65 | 1012.7 |
| 20260904184112 | 25 | 7 | 6.4 | 9.7 | 0.00 | 0.43 | 0.43 | 60 | 1012.7 |
| 20260904183608 | 26 | 266 | 11.3 | 14.5 | 0.00 | 0.43 | 0.43 | 59 | 1012.7 |
| 20260904183102 | 26 | 267 | 6.4 | 9.7 | 0.00 | 0.43 | 0.43 | 59 | 1012.8 |
| 20260904182558 | 25 | 284 | 4.8 | 6.4 | 0.00 | 0.43 | 0.43 | 63 | 1012.7 |
| 20260904182052 | 25 | 66 | 4.8 | 6.4 | 0.00 | 0.43 | 0.43 | 61 | 1012.8 |
| 20260904181548 | 26 | 260 | 8.0 | 8.0 | 0.00 | 0.43 | 0.43 | 60 | 1013.0 |
| 20260904181048 | 25 | 8 | 4.8 | 8.0 | 0.00 | 0.43 | 0.43 | 62 | 1013.0 |
| 20260904180543 | 25 | 34 | 3.2 | 9.7 | 0.00 | 0.43 | 0.43 | 61 | 1013.0 |
| 20260904180038 | 25 | 40 | 1.6 | 6.4 | 0.00 | 0.43 | 0.43 | 64 | 1012.9 |
| 20260904175532 | 25 | 309 | 4.8 | 14.5 | 0.00 | 0.43 | 0.43 | 61 | 1013.2 |
| 20260904175031 | 25 | 14 | 6.4 | 6.4 | 0.00 | 0.43 | 0.43 | 63 | 1013.0 |
| 20260904174526 | 25 | 10 | 8.0 | 8.0 | 0.00 | 0.43 | 0.43 | 64 | 1013.4 |
| 20260904174023 | 25 | 14 | 1.6 | 3.2 | 0.00 | 0.43 | 0.43 | 68 | 1013.2 |
| 20260904173522 | 25 | 356 | 3.2 | 14.5 | 0.00 | 0.43 | 0.43 | 64 | 1013.2 |
| 20260904173018 | 24 | 224 | 4.8 | 9.7 | 0.00 | 0.43 | 0.43 | 66 | 1013.3 |
| 20260904172514 | 23 | 35 | 3.2 | 3.2 | 0.00 | 0.43 | 0.43 | 72 | 1013.5 |
| 20260904172012 | 23 | 13 | 3.2 | 4.8 | 0.00 | 0.43 | 0.43 | 73 | 1013.4 |
| 20260904171508 | 24 | 9 | 4.8 | 6.4 | 0.00 | 0.43 | 0.43 | 72 | 1013.3 |
| 20260904171004 | 24 | 18 | 4.8 | 6.4 | 0.00 | 0.43 | 0.43 | 72 | 1013.4 |
| 20260904170459 | 23 | 142 | 0.0 | 4.8 | 0.00 | 0.43 | 0.43 | 73 | 1013.4 |
| 20260904165954 | 23 | 264 | 3.2 | 3.2 | 0.00 | 0.43 | 0.43 | 79 | 1013.5 |
| 20260904165453 | 23 | 12 | 3.2 | 3.2 | 0.00 | 0.43 | 0.43 | 76 | 1013.6 |
| 20260904164953 | 23 | 359 | 3.2 | 4.8 | 0.00 | 0.43 | 0.43 | 74 | 1013.5 |
| 20260904164448 | 23 | 359 | 4.8 | 6.4 | 0.00 | 0.43 | 0.43 | 71 | 1013.5 |
| 20260904163944 | 23 | 29 | 3.2 | 3.2 | 0.00 | 0.43 | 0.43 | 77 | 1013.2 |
| 20260904163438 | 23 | 87 | 4.8 | 6.4 | 0.00 | 0.43 | 0.43 | 77 | 1013.2 |
| 20260904162937 | 23 | 339 | 0.0 | 3.2 | 0.00 | 0.43 | 0.43 | 77 | 1013.1 |
| 20260904162433 | 23 | 254 | 4.8 | 8.0 | 0.00 | 0.43 | 0.43 | 73 | 1013.3 |
| 20260904161928 | 24 | 71 | 0.0 | 4.8 | 0.00 | 0.43 | 0.43 | 72 | 1013.5 |
| 20260904161423 | 23 | 315 | 1.6 | 6.4 | 0.00 | 0.43 | 0.43 | 75 | 1013.6 |
| 20260904160919 | 23 | 45 | 4.8 | 6.4 | 0.00 | 0.43 | 0.43 | 75 | 1013.6 |
| 20260904160414 | 23 | 0 | 4.8 | 4.8 | 0.00 | 0.43 | 0.43 | 76 | 1013.6 |
| 20260904155904 | 24 | 256 | 3.2 | 9.7 | 0.00 | 0.43 | 0.43 | 71 | 1013.6 |
| 20260904155403 | 24 | 329 | 1.6 | 4.8 | 0.00 | 0.43 | 0.43 | 72 | 1013.5 |
| 20260904154902 | 23 | 344 | 3.2 | 11.3 | 0.00 | 0.43 | 0.43 | 78 | 1013.5 |
| 20260904154357 | 22 | 271 | 8.0 | 12.9 | 0.00 | 0.43 | 0.43 | 77 | 1013.4 |
| 20260904153852 | 22 | 311 | 6.4 | 8.0 | 0.00 | 0.43 | 0.43 | 78 | 1013.8 |
| 20260904153348 | 23 | 345 | 1.6 | 6.4 | 0.00 | 0.43 | 0.43 | 76 | 1013.3 |
| 20260904152844 | 23 | 21 | 3.2 | 6.4 | 0.00 | 0.43 | 0.43 | 75 | 1013.5 |
| 20260904152338 | 23 | 6 | 3.2 | 6.4 | 0.00 | 0.43 | 0.43 | 77 | 1013.5 |
| 20260904151833 | 23 | 359 | 3.2 | 6.4 | 0.00 | 0.43 | 0.43 | 75 | 1013.7 |
| 20260904151332 | 23 | 126 | 3.2 | 9.7 | 0.00 | 0.43 | 0.43 | 77 | 1013.7 |
| 20260904150829 | 23 | 345 | 3.2 | 4.8 | 0.00 | 0.43 | 0.43 | 77 | 1013.7 |
| 20260904150323 | 23 | 102 | 3.2 | 4.8 | 0.00 | 0.43 | 0.43 | 78 | 1013.9 |
| 20260904145821 | 22 | 5 | 1.6 | 6.4 | 0.00 | 0.43 | 0.43 | 76 | 1013.6 |
| 20260904145318 | 23 | 349 | 3.2 | 4.8 | 0.00 | 0.43 | 0.43 | 78 | 1013.5 |
| 20260904144813 | 23 | 8 | 3.2 | 3.2 | 0.00 | 0.43 | 0.43 | 79 | 1013.9 |
| 20260904144308 | 23 | 15 | 1.6 | 3.2 | 0.00 | 0.43 | 0.43 | 78 | 1013.6 |
| 20260904143803 | 23 | 4 | 3.2 | 4.8 | 0.00 | 0.43 | 0.43 | 80 | 1013.4 |
| 20260904143300 | 22 | 357 | 4.8 | 6.4 | 0.00 | 0.43 | 0.43 | 79 | 1013.7 |
| 20260904142756 | 22 | 19 | 0.0 | 6.4 | 0.00 | 0.43 | 0.43 | 79 | 1013.6 |
| 20260904142252 | 22 | 0 | 3.2 | 4.8 | 0.00 | 0.43 | 0.43 | 82 | 1013.7 |
| 20260904141752 | 22 | 10 | 4.8 | 6.4 | 0.00 | 0.43 | 0.43 | 81 | 1013.4 |
| 20260904141247 | 22 | 59 | 0.0 | 6.4 | 0.00 | 0.43 | 0.43 | 83 | 1013.6 |
| 20260904140742 | 22 | 68 | 6.4 | 6.4 | 0.00 | 0.43 | 0.43 | 84 | 1013.5 |
| 20260904140238 | 22 | 328 | 6.4 | 6.4 | 0.00 | 0.43 | 0.43 | 85 | 1013.8 |
| 20260904135736 | 21 | 356 | 4.8 | 8.0 | 0.00 | 0.43 | 0.43 | 85 | 1013.7 |
| 20260904135232 | 21 | 334 | 3.2 | 9.7 | 0.00 | 0.43 | 0.43 | 85 | 1013.7 |
| 20260904134728 | 21 | 358 | 3.2 | 4.8 | 0.00 | 0.43 | 0.43 | 87 | 1013.8 |